Regional Weather Roundup
Issued by NWS

Home | Current Version | Previous Version | Graphics & Text | Print | Product List | Glossary On
Versions: 1 2 3 4 5 6 7 8 9 10 11 12 13 14 15 16 17 18 19 20 21 22 23 24 25 26 27 28 29 30 31 32 33 34 35 36 37 38 39 40 41 42 43 44 45 46 47 48 49 50
000
ASUS43 KLOT 191508
RWRIL

ILLINOIS REGIONAL WEATHER ROUNDUP
NATIONAL WEATHER SERVICE CHICAGO/ROMEOVILLE IL
1000 AM CDT SUN APR 19 2015

NOTE: "FAIR" INDICATES FEW OR NO CLOUDS BELOW 12,000 FEET WITH NO
SIGNIFICANT WEATHER AND/OR OBSTRUCTIONS TO VISIBILITY.

* THESE STATIONS ARE NOT UNDER NWS QUALITY CONTROL. THEY ALSO MAY NOT
  REPORT WEATHER SUCH AS PRECIPITATION OR FOG.

ILZ001-002-007-009-015-016-024-191600-
NORTHWEST ILLINOIS

CITY           SKY/WX    TMP DP  RH WIND       PRES   REMARKS
MOLINE         PTSUNNY   64  45  49 E8        29.70F
STERLING*      MOSUNNY   66  43  42 SE15G23   29.73F
SAVANNA*       MOSUNNY   66  40  39 SE12      29.73F
$$

ILZ003-004-008-010-011-017-018-191600-
NORTH CENTRAL ILLINOIS

CITY           SKY/WX    TMP DP  RH WIND       PRES   REMARKS
ROCKFORD       PTSUNNY   66  39  37 SE15      29.77F
FREEPORT*      MOSUNNY   62  40  43 SE9       29.77F
ROCHELLE*      MOSUNNY   65  40  39 SE20      29.76F
DE KALB*       MOSUNNY   64  39  39 SE21      29.77F
PERU*          MOSUNNY   63  41  44 SE10      29.74F
$$

ILZ005-006-012>014-019>023-191600-
NORTHEAST ILLINOIS

CITY           SKY/WX    TMP DP  RH WIND       PRES   REMARKS
CHICAGO-OHARE  PTSUNNY   61  35  37 E10       29.78F
CHICAGO-MIDWAY PTSUNNY   61  37  41 E13       29.78F
AURORA         MOSUNNY   67  38  34 E21       29.76F
LANSING*       PTSUNNY   64  35  33 SE24      29.77F
JOLIET*        PTSUNNY   65  41  42 E15G21    29.76F
WAUKEGAN       MOSUNNY   53  33  46 E10       29.82F
DUPAGE AIRPORT MOSUNNY   65  38  36 E12       29.76F
KANKAKEE*      PTSUNNY   64  42  45 E15G25    29.75F
WHEELING       MOSUNNY   57  34  41 E10       29.81F
MORRIS*        PTSUNNY   64  39  40 E15       29.73F
ROMEOVILLE*    MOSUNNY   64  37  35 E13G18    29.76F
NORTHERLY ISL    N/A     51  37  58 N7          N/A
$$

LMZ740>746-191600-
SOUTHERN LAKE MICHIGAN

STATION/POSITION SKY/WX   TEMP    WIND        PRES    VSBY  WAVE
                          AIR SEA DIR/SP/G                  HT/PER
                          (F)     (DEG/KT/KT) (MB)    (MI)  (FT/S)
HARRISON CRIB              47      60/  6/  7   N/A
BURNHAM HARBOR             51      20/  7/  7   N/A
CALUMET HARBOR             52      60/  6/  7   N/A
BURNS HARBOR               62     120/ 16/ 26 1009.5F
MICHIGAN CITY              58      90/ 14/ 20   N/A
MICHIGAN CITY 6N           56 44  140/ 12/ 17   N/A           3/ 6
$$

ILZ025>027-034>036-040-047-049-050-058-095>099-191600-
WEST-CENTRAL ILLINOIS

CITY           SKY/WX    TMP DP  RH WIND       PRES   REMARKS
QUINCY         MOSUNNY   67  51  56 SE8       29.65F
GALESBURG*     PTSUNNY   66  50  56 E12       29.69F
MACOMB*        PTSUNNY   66  51  58 E12       29.70F
JACKSONVILLE*  CLOUDY    67  51  57 E8        29.65F
PITTSFIELD*    CLOUDY    67  52  58 SE7       29.66F
$$

ILZ028>032-037-038-041>044-048-051>054-059>061-191600-
CENTRAL ILLINOIS

CITY           SKY/WX    TMP DP  RH WIND       PRES   REMARKS
PONTIAC        PTSUNNY   64  44  48 E16       29.73F
BLOOMINGTON    CLOUDY    61  48  62 E15       29.72F
DECATUR        LGT RAIN  59  53  80 E12       29.69F
PEORIA         CLOUDY    66  48  52 E9        29.70F
LACON*         PTSUNNY   62  43  50 E10       29.71F
LINCOLN*       CLOUDY    64  49  58 E13       29.67F
SPRINGFIELD    CLOUDY    63  51  65 E7        29.68F
TAYLORVILLE    LGT RAIN  57  54  88 E7        29.67F
$$

ILZ033-039-045-046-055>057-062-063-191600-
EAST-CENTRAL ILLINOIS

CITY           SKY/WX    TMP DP  RH WIND       PRES   REMARKS
CHAMPAIGN      LGT RAIN  59  49  69 E14       29.70F
DANVILLE*      CLOUDY    58  46  63 E10G17    29.70F
RANTOUL*       CLOUDY    62  47  56 E15       29.71F
MATTOON        LGT RAIN  59  52  77 E8        29.67F
PARIS*         LGT RAIN  59  53  79 E8        29.71F
$$

ILZ079-100>102-191600-
SOUTHWEST ILLINOIS

CITY           SKY/WX    TMP DP  RH WIND       PRES   REMARKS
ALTON          CLOUDY    63  55  77 E7        29.65F
BELLEVILLE     DRIZZLE   61  61 100 NE3       29.63S
CAHOKIA*       LGT RAIN  64  59  83 E6        29.63F
SPARTA*        RAIN      60  59  97 E6        29.63F
$$

ILZ064>066-069>071-074>076-080>082-084>086-088>090-092>094-191600-
SOUTH-CENTRAL ILLINOIS

CITY           SKY/WX    TMP DP  RH WIND       PRES   REMARKS
CARBONDALE     LGT RAIN  61  59  93 NE3       29.61F FOG
CAIRO*         LGT RAIN  65  65  97 S5        29.60F
EFFINGHAM*     RAIN      58  53  82 NE7       29.67F
MT. VERNON     CLOUDY    59  54  82 E6        29.64F
CENTRALIA*     LGT RAIN  59  57  91 E6        29.63F
SALEM*         RAIN      60  57  89 E5        29.64F
METROPOLIS*    CLOUDY    65  65 100 CALM      29.60F FOG
$$

ILZ067-068-072-073-078-083-087-091-191600-
SOUTHEAST ILLINOIS

CITY           SKY/WX    TMP DP  RH WIND       PRES   REMARKS
LAWRENCEVILLE  HVY RAIN  58  57  97 E10       29.65F VSB 3/4
FLORA*         LGT RAIN  58  56  93 E7        29.65F
FAIRFIELD*     LGT RAIN  58  57  98 E6        29.62F
HARRISBURG*    CLOUDY    61  61 100 CALM      29.63F FOG
ROBINSON*      RAIN      58  56  94 E9        29.68F
CARMI*         DRIZZLE   60  56  87 E6        29.63F
$$

ABBREVIATIONS USED IN REMARKS
   TC - TEMPERATURE IN CELSIUS
  WCI - WIND CHILL INDEX
   HX - HEAT INDEX
  VSB - VISIBILITY
$$



USA.gov is the U.S. government's official web portal to all federal, state and local government web resources and services.